SCP
0 0 1 1 1 1 0 0 0 0 1 0 0 0 1 1 1 2 3 3 3 3 2 2 2 2 1 1 1 1 1 1 1 1 1 1 1 2 1 1 1 1 1 1 1 1 1 1 1
0 0 1 1 1 1 0 0 0 0 0 0 0 0 1 1 2 3 3 3 3 3 2 2 2 2 1 1 1 1 1 1 1 1 1 1 1 2 1 1 1 1 1 1 1 1 1 1 1
0 0 1 1 1 1 0 0 0 0 0 0 0 1 1 2 2 3 4 3 3 3 3 2 2 2 2 1 1 1 1 2 1 1 1 1 1 1 1 1 1 1 1 1 1 1 1 1 1
0 0 1 1 0 0 0 1 0 0 0 0 0 1 2 3 3 3 3 3 3 3 3 3 2 2 2 2 2 2 2 1 1 1 1 1 1 1 1 1 1 1 1 1 1 1 1 1 1
0 0 0 0 0 0 0 0 1 0 0 0 1 2 4 5 4 3 3 3 4 4 3 3 3 3 2 2 2 2 2 1 1 1 1 1 1 1 1 1 1 1 1 1 1 1 1 1 1
0 0 0 0 0 0 0 0 0 1 0 0 1 2 4 5 4 3 2 3 5 5 4 3 3 3 3 3 3 2 2 2 2 2 1 1 1 1 1 1 1 1 1 1 1 1 1 2 2
0 0 0 0 0 0 0 0 0 0 0 1 1 2 4 5 4 2 2 4 6 6 4 4 4 4 4 5 4 3 3 2 2 2 2 1 1 1 1 1 1 1 1 2 2 2 2 2 2
0 0 0 0 0 0 0 0 0 0 1 1 1 2 5 6 4 3 3 6 7 7 6 5 5 5 5 5 4 3 3 2 2 2 1 1 1 1 1 1 1 1 2 2 2 2 2 2 2
0 0 0 0 0 0 0 0 0 0 1 1 2 4 5 5 4 3 5 8 10 9 8 6 5 5 4 3 3 3 2 2 1 1 1 1 1 1 1 1 1 2 2 2 2 2 2 2 2
0 0 0 0 0 0 0 0 0 0 1 2 4 5 5 4 3 3 5 8 10 10 7 6 6 6 4 3 3 3 3 2 2 1 1 1 1 1 1 1 2 2 2 2 2 2 2 1 1
0 0 0 0 0 0 0 0 0 0 1 2 4 5 4 3 3 4 4 5 6 6 5 4 5 6 5 4 4 4 4 3 2 2 1 1 2 2 2 2 2 2 2 2 2 2 2 1 1
0 0 0 0 0 0 0 0 0 1 1 2 4 4 3 3 3 3 3 3 3 4 3 4 5 6 6 6 5 5 5 4 3 2 2 2 1 2 2 2 2 2 2 2 2 2 2 1 1
0 0 0 0 0 0 0 0 0 1 1 2 3 3 2 2 3 3 3 3 3 3 3 4 5 6 6 6 5 5 5 5 4 4 3 2 2 2 2 2 2 2 2 3 3 3 3 2 2
0 0 0 0 0 0 0 0 0 1 1 2 2 2 2 2 2 4 4 4 4 4 4 5 6 7 7 6 5 5 5 5 5 5 4 3 2 2 3 3 3 3 3 4 5 5 4 4 3
0 0 0 0 0 0 0 0 1 1 2 2 2 2 2 2 2 3 5 6 6 6 6 7 7 7 8 7 6 5 5 5 5 5 5 4 3 3 4 4 4 4 5 5 6 6 7 6 5
0 0 0 0 0 1 0 0 1 1 2 2 2 2 2 2 2 3 5 6 6 8 9 8 8 9 10 9 6 5 4 4 4 4 4 4 4 4 5 5 5 5 6 6 6 7 9 8 6
0 0 0 0 1 1 0 1 1 1 2 3 3 2 2 2 3 4 5 6 8 10 11 10 10 11 12 10 8 6 6 5 5 5 5 5 5 6 6 6 6 6 6 6 7 9 10 8 7
0 0 0 0 1 0 0 0 1 1 2 3 3 3 3 4 5 5 7 8 10 13 14 13 13 15 14 12 9 8 8 8 8 7 6 6 6 8 8 7 6 6 6 6 8 10 9 7 6
0 0 0 0 0 0 0 0 1 2 3 3 3 3 4 5 6 7 7 9 12 15 16 15 16 17 17 14 11 10 10 11 10 9 8 8 8 9 9 8 7 7 7 7 9 10 9 7 7
0 0 0 0 0 0 0 0 1 3 3 3 3 3 4 6 7 7 6 7 11 15 17 16 17 18 18 16 12 11 11 11 10 9 9 9 10 11 11 9 7 7 8 8 9 9 8 8 9
0 0 0 0 0 0 0 1 3 4 4 3 3 2 3 5 6 6 5 6 9 12 15 16 17 18 18 16 12 10 10 10 9 9 9 11 11 12 12 10 9 8 8 9 9 9 9 10 11
0 0 0 0 0 1 1 2 3 3 3 3 3 3 3 4 6 6 5 5 7 10 13 16 18 18 17 15 11 9 10 9 9 9 10 11 12 13 12 11 10 9 9 9 9 9 10 11 13
0 0 0 0 0 1 1 1 2 2 2 3 4 3 3 4 7 9 10 10 10 11 15 17 18 18 16 14 12 10 10 10 10 10 10 12 12 12 13 12 12 11 10 10 9 10 10 12 14
0 0 0 0 0 1 1 1 1 2 2 4 4 4 4 6 9 12 14 14 13 14 17 19 18 16 15 14 12 10 10 11 11 11 11 11 12 12 13 13 13 13 12 11 10 10 11 12 14
0 0 0 0 0 1 1 1 1 2 3 4 4 4 5 8 10 12 15 15 13 14 16 19 17 15 13 12 11 11 11 12 13 12 11 11 11 12 13 14 14 14 14 12 11 10 11 13 14
0 0 0 0 0 0 1 1 2 2 3 3 3 3 5 7 8 9 12 13 13 13 15 15 15 13 11 9 9 10 11 12 13 12 11 10 10 11 13 14 14 14 14 12 11 10 10 12 14
0 0 0 0 0 0 1 1 2 2 3 2 2 3 4 5 6 7 10 12 13 14 14 12 11 12 11 9 8 8 9 11 12 13 13 12 11 11 12 14 14 13 12 12 11 9 8 10 11
0 0 1 1 1 0 1 1 2 3 3 2 2 3 4 4 5 6 8 10 11 11 11 10 10 10 10 9 8 7 8 10 12 14 15 15 14 12 11 12 12 11 11 11 10 8 7 7 8
0 0 1 1 1 1 1 1 2 2 3 2 3 3 3 3 4 5 7 10 11 10 10 10 9 8 7 7 7 7 9 11 12 13 15 16 15 12 10 9 9 9 9 9 8 7 6 5 5
0 0 1 1 1 1 1 1 2 2 3 3 3 3 2 3 3 4 6 9 11 11 11 11 10 8 6 6 7 7 9 10 11 12 14 16 14 10 8 7 7 7 8 7 6 5 4 4 4
Wind_Speed
8 11 10 8 6 4 3 2 6 8 8 8 8 8 11 11 10 8 8 12 18 17 15 15 13 13 11 10 10 10 10 10 10 9 9 9 9 8 8 8 8 8 8 8 8 8 8 8 8
9 12 11 7 5 3 2 4 7 9 8 6 6 7 10 12 11 10 10 13 17 17 14 14 14 13 11 10 10 10 10 10 10 10 9 8 8 8 7 8 8 8 8 7 7 7 7 7 7
11 15 9 7 6 3 1 4 6 6 4 4 4 7 8 8 10 10 11 13 16 16 15 15 15 13 12 11 10 9 9 10 10 9 9 8 8 7 7 6 7 7 7 7 7 6 6 7 6
9 9 8 7 6 3 2 3 4 3 3 2 3 7 8 8 8 12 12 13 15 16 17 16 15 14 12 11 10 9 9 9 9 9 8 8 7 7 6 6 6 7 7 7 6 6 6 6 5
10 8 9 9 8 2 2 3 3 3 2 2 3 8 8 10 12 13 11 12 14 16 16 16 15 14 12 11 10 10 9 9 9 9 8 7 6 6 6 6 6 6 6 6 5 6 6 5 5
9 8 9 8 7 4 2 2 1 2 3 1 3 7 8 10 12 12 11 11 14 16 17 15 15 14 13 12 11 10 9 9 8 8 8 7 6 6 6 6 6 5 5 5 5 5 5 4 4
10 10 13 9 5 5 3 3 3 3 4 3 3 5 7 11 11 10 10 10 13 15 15 14 14 12 13 12 11 11 10 9 9 8 8 7 7 6 6 7 6 5 5 5 5 5 4 4 3
10 10 15 10 7 4 2 2 2 4 3 3 3 2 7 11 11 10 9 9 11 13 13 13 13 13 12 11 12 11 10 10 9 9 8 8 8 7 8 7 6 6 6 5 5 4 4 4 4
14 11 12 10 9 6 3 4 3 2 2 0 2 4 11 14 13 11 9 9 9 10 11 11 12 11 11 11 12 11 11 10 9 8 9 8 6 6 7 7 8 7 6 6 5 5 5 5 6
11 10 12 10 9 9 8 7 5 5 4 2 3 7 11 13 12 11 10 10 10 10 11 10 10 10 9 8 9 7 8 8 7 6 7 6 4 3 5 8 9 8 7 6 7 7 6 6 4
14 14 13 13 12 10 10 8 6 7 5 2 4 6 9 11 11 10 9 9 10 9 8 10 9 8 8 6 7 5 4 6 6 6 5 4 3 3 4 4 5 5 7 5 6 6 5 4 3
15 14 13 12 12 12 12 10 8 6 4 1 3 6 8 10 10 9 9 9 10 10 9 9 10 8 6 6 5 4 4 5 4 5 5 4 2 2 2 2 4 4 3 3 3 3 3 2 2
15 14 13 13 14 12 11 12 9 6 3 2 4 5 7 9 9 9 8 7 8 10 9 8 8 7 5 5 3 5 4 5 5 5 5 4 3 2 2 2 2 3 2 3 2 2 1 1 1
14 14 14 15 14 12 12 12 10 8 6 5 6 6 8 8 8 8 7 7 7 7 8 7 7 8 6 4 3 3 3 4 4 4 5 4 3 3 2 2 2 2 1 1 2 2 1 1 1
15 15 15 16 14 13 12 13 10 8 6 6 7 8 8 8 8 7 7 7 8 8 7 6 6 8 7 6 5 4 3 4 4 4 5 5 3 3 2 2 2 2 1 1 1 2 1 2 2
15 15 15 16 15 13 11 12 8 8 8 6 7 7 8 8 8 8 9 8 8 9 8 7 7 8 6 5 4 4 4 4 3 4 4 5 5 4 3 2 3 2 1 1 1 2 2 2 2
15 16 17 14 11 10 11 10 8 8 8 8 8 7 8 8 8 8 9 9 9 9 8 7 6 7 7 5 4 4 3 3 3 4 4 5 5 4 3 3 2 3 2 2 3 2 1 2 2
14 14 14 11 9 10 11 11 8 8 8 8 8 8 8 8 7 8 8 9 9 8 8 7 6 6 6 4 3 2 3 3 3 3 4 5 4 5 4 3 3 3 2 2 2 1 2 2 2
17 17 16 13 10 11 12 12 8 8 8 7 7 7 8 9 9 8 9 9 9 8 8 8 7 6 5 4 4 4 4 4 3 3 5 5 4 4 4 2 3 3 2 2 3 2 3 3 2
17 17 17 14 11 10 12 13 9 9 8 6 6 7 8 8 9 9 9 9 9 9 8 8 7 7 6 4 3 3 3 3 3 3 4 5 5 4 4 3 3 3 2 2 2 2 2 2 2
16 15 16 15 13 13 13 14 10 8 8 7 7 7 7 9 10 9 8 8 8 8 8 8 8 8 7 5 3 3 2 2 3 4 4 5 4 4 3 4 3 3 3 2 2 3 3 2 2
15 15 15 15 14 12 11 11 9 7 8 8 8 7 7 6 8 9 10 8 8 7 7 7 7 8 7 6 5 6 5 4 4 3 4 5 5 5 5 4 4 3 2 3 4 3 2 3 2
16 14 13 15 15 14 12 11 9 6 5 6 6 6 6 6 7 7 8 9 8 7 6 6 7 7 7 7 6 5 5 4 3 3 4 5 5 5 5 4 4 4 3 3 3 2 2 2 3
15 15 15 15 13 15 11 11 9 5 4 4 6 6 5 6 7 7 7 8 7 7 6 5 6 6 7 7 7 6 6 5 4 4 4 4 4 4 4 4 3 3 3 3 3 2 3 3 3
15 12 10 11 11 11 8 9 6 3 1 1 2 4 6 5 5 6 7 7 7 7 6 6 5 5 5 5 6 6 6 6 5 5 4 4 3 3 4 4 3 3 3 3 3 3 4 4 3
13 14 12 11 10 10 9 9 5 4 1 2 2 5 4 4 4 5 6 6 7 7 6 6 5 5 5 5 5 4 5 4 4 4 3 3 2 3 4 4 4 4 4 4 3 3 4 3 3
14 14 13 13 15 14 9 7 5 1 2 1 2 2 4 4 4 4 5 6 6 6 6 5 5 4 4 4 5 5 5 4 3 3 3 3 2 2 3 3 3 3 3 4 3 3 3 3 3
14 14 10 11 12 13 11 9 4 1 2 3 2 1 3 5 4 4 4 5 5 6 5 5 5 4 4 4 4 4 4 3 3 3 3 2 2 1 2 3 3 3 3 3 3 3 3 3 3
13 14 11 9 10 11 11 6 2 3 1 1 2 2 3 4 4 4 4 5 5 5 5 5 4 4 3 4 4 3 4 4 3 2 3 2 2 2 2 3 3 3 3 3 3 4 3 4 4
14 12 11 10 11 11 11 5 3 3 1 2 1 3 4 4 3 4 4 4 4 4 4 4 4 4 3 3 3 3 3 3 3 3 2 2 2 2 2 3 3 4 3 3 3 4 4 4 4
Wind_Direction
232 238 234 248 244 256 295 338 54 58 62 60 50 43 58 49 49 85 107 106 110 118 126 126 123 123 122 121 121 120 119 120 117 114 110 108 105 99 98 100 101 103 105 106 105 106 108 110 111
257 251 242 245 255 266 328 12 54 57 56 55 65 55 68 69 79 103 112 113 119 123 131 129 128 126 126 124 124 123 122 123 122 119 116 114 111 106 102 103 103 102 105 108 109 108 112 116 118
261 261 264 248 251 263 56 2 57 68 68 60 63 64 52 70 88 104 117 128 124 129 128 128 133 131 130 129 128 129 129 128 127 125 122 119 115 113 112 112 111 106 106 108 111 109 110 118 124
260 248 236 258 276 309 56 29 33 43 65 70 69 85 77 65 88 112 130 135 127 126 126 133 137 136 135 135 134 135 135 134 133 130 127 126 124 122 121 119 118 114 111 111 112 113 114 118 127
245 262 266 278 281 317 20 33 22 8 2 35 74 91 92 91 102 121 139 136 129 125 128 136 140 139 139 140 139 140 140 138 138 136 134 134 132 129 128 123 122 119 117 117 117 116 119 123 138
261 263 267 275 299 330 340 10 1 0 316 299 99 103 100 116 122 134 142 141 130 127 129 136 142 143 144 144 144 144 144 143 143 145 143 142 142 139 135 130 126 125 124 124 127 129 136 137 154
269 285 288 287 297 300 316 9 348 342 329 2 37 96 117 128 127 137 142 139 130 128 131 143 147 148 148 146 146 147 148 148 149 151 153 155 156 155 148 142 139 137 137 138 138 140 151 155 175
270 284 289 294 290 285 325 339 342 333 339 11 6 96 136 131 135 141 147 143 136 135 138 146 150 154 158 154 152 153 155 157 159 162 169 169 169 169 164 158 152 149 149 153 157 163 172 184 203
267 269 276 293 302 312 330 319 324 310 277 281 43 86 126 135 143 150 154 153 144 139 141 150 151 153 159 156 153 158 162 167 168 175 180 180 186 178 175 160 151 157 163 172 179 189 198 209 222
254 264 276 290 306 315 320 311 300 279 264 218 111 107 131 143 155 164 166 165 154 150 147 149 152 155 161 151 149 164 169 166 180 175 176 190 192 174 160 151 158 167 174 184 198 208 216 225 223
256 261 276 288 300 305 297 292 285 283 277 252 155 140 149 157 165 174 174 167 159 157 153 151 149 154 156 141 151 164 166 158 179 171 173 188 189 166 152 150 161 175 185 194 192 205 218 220 211
260 265 273 283 292 290 290 288 281 282 294 340 148 170 170 171 179 182 179 173 160 159 161 154 150 153 152 144 156 160 161 158 167 163 179 186 183 176 155 160 170 182 188 193 190 210 217 226 233
263 268 271 273 273 273 277 278 279 267 249 192 178 193 190 187 185 185 178 164 160 156 157 154 147 142 139 139 163 160 156 158 159 163 177 183 179 167 158 177 177 194 185 180 190 228 237 224 244
276 280 279 273 270 266 265 272 270 253 224 203 188 195 198 192 188 177 172 161 164 150 152 149 145 141 139 148 164 155 162 159 166 166 172 184 178 165 168 179 185 220 192 173 180 193 219 245 253
275 275 274 271 266 260 265 268 257 246 217 209 205 198 194 189 188 174 173 164 155 147 145 147 151 149 154 164 182 170 172 171 172 164 167 176 183 172 165 182 190 210 187 170 195 209 199 219 226
275 266 262 259 252 248 246 258 243 235 213 207 213 203 191 183 191 176 170 162 154 151 150 161 168 156 161 170 184 179 179 170 169 163 166 174 180 177 172 193 192 183 175 179 196 216 213 223 245
257 255 259 259 250 249 248 260 231 220 214 205 203 200 187 179 184 174 169 160 156 152 153 161 156 157 170 173 185 188 173 174 174 169 170 175 183 183 190 202 175 179 184 200 214 190 218 230 243
261 265 271 270 259 261 257 259 239 224 226 211 198 192 189 187 181 169 167 158 152 149 152 158 157 160 162 167 179 190 183 182 190 178 169 169 183 192 199 194 177 193 192 203 209 192 205 230 235
270 279 284 282 271 272 268 266 243 228 223 215 200 192 187 182 175 165 166 158 151 150 157 164 167 160 159 173 180 187 192 191 191 186 167 168 185 194 195 192 187 201 199 205 206 204 220 230 222
264 273 278 280 274 274 272 269 250 224 224 214 205 195 188 177 171 167 165 163 158 163 168 168 169 162 170 184 185 190 187 187 182 176 155 172 186 197 195 184 199 196 204 213 220 215 230 245 208
262 265 275 283 287 276 270 270 254 221 201 207 206 202 199 185 173 161 166 163 160 168 175 175 169 167 175 176 180 193 174 180 181 171 168 177 184 194 204 190 202 204 198 208 219 216 216 233 234
264 268 274 282 279 276 275 272 260 231 198 203 205 201 190 185 163 161 165 163 166 169 170 165 166 169 172 175 187 193 193 195 191 179 172 173 186 191 199 199 201 205 211 204 221 201 219 223 232
272 279 280 276 273 270 265 266 267 235 208 208 198 187 181 177 163 162 164 157 166 159 159 167 166 169 168 179 190 196 202 198 184 176 167 177 187 193 198 197 200 202 215 207 226 202 210 220 231
271 276 274 269 266 259 256 260 262 254 226 203 184 172 163 162 157 154 157 156 159 153 152 146 153 167 174 185 190 196 199 195 190 184 181 186 186 190 196 200 194 197 206 207 217 210 218 223 229
263 266 264 261 258 263 273 259 257 266 238 104 129 151 145 147 149 146 156 161 155 148 143 138 141 155 171 184 192 196 198 198 196 191 188 188 190 190 191 197 182 195 206 210 208 212 224 221 222
259 258 259 271 275 275 259 247 235 232 114 94 116 121 123 138 139 148 153 146 147 143 137 139 149 157 168 178 183 182 187 196 191 187 186 189 199 197 182 188 188 198 200 213 207 219 222 215 216
260 257 263 267 270 275 270 262 244 161 72 72 43 88 118 133 136 149 144 142 142 141 138 149 154 158 170 183 180 178 178 184 178 169 182 183 201 201 162 178 194 213 217 216 205 221 222 211 212
256 264 264 263 269 273 269 260 254 206 204 167 157 150 123 125 141 147 140 136 142 136 135 147 155 168 175 176 181 183 170 175 183 181 183 174 173 195 174 188 204 208 218 225 214 228 219 206 213
264 261 261 265 265 273 275 267 315 62 310 227 135 129 121 128 135 133 125 132 138 138 145 148 151 161 169 175 175 168 163 170 178 178 190 189 182 188 189 195 209 212 216 222 220 233 223 214 218
268 262 260 263 266 267 272 267 8 75 17 5 96 110 97 101 127 134 127 129 134 143 147 149 157 168 172 177 167 161 156 162 180 190 187 184 188 198 208 208 216 226 221 218 221 236 235 224 225